This is the latest recevied weather packets stored in our database for station/object K9JVA. If no packets are shown the sender has not sent any weather packets the latest 10 day(s).
| Time | Temp. | Humidity | Pressure | Rain* | Wind** | Luminosity | Snow |
|---|---|---|---|---|---|---|---|
| 1777806436 | 0.56° C | 91% | 1019 hPa | 0 mm | - | - | - |
| 1777806078 | 0.56° C | 90% | 1019 hPa | 0 mm | - | - | - |
| 1777805718 | 0.56° C | 90% | 1019 hPa | 0 mm | - | - | - |
| 1777804518 | 0.56° C | 91% | 1018.7 hPa | 0 mm | - | - | - |
| 1777800321 | 1.11° C | 91% | 1018.4 hPa | 0 mm | - | - | - |
| 1777798099 | 1.11° C | 91% | 1018.4 hPa | 0 mm | - | - | - |
| 1777797439 | 1.11° C | 91% | 1018.4 hPa | 0 mm | - | - | - |
| 1777796482 | 0.56° C | 90% | 1018.3 hPa | 0 mm | - | - | - |
| 1777796180 | 0.56° C | 90% | 1018.3 hPa | 0 mm | - | - | - |
| 1777795280 | 0.56° C | 90% | 1018.3 hPa | 0 mm | - | - | - |
| 1777795266 | 0.56° C | 90% | 1018.3 hPa | 0 mm | - | - | - |
| 1777793256 | 0.56° C | 89% | 1018.2 hPa | 0 mm | - | - | - |
| 1777792523 | 0.56° C | 88% | 1018.2 hPa | 0 mm | - | - | - |
| 1777791621 | 0.56° C | 88% | 1018.3 hPa | 0 mm | - | - | - |
| 1777791023 | 1.11° C | 88% | 1018.3 hPa | 0 mm | - | - | - |
| 1777789763 | 1.11° C | 87% | 1018.5 hPa | 0 mm | - | - | - |
| 1777788563 | 1.11° C | 87% | 1018.5 hPa | 0 mm | - | - | - |
| 1777787962 | 1.11° C | 87% | 1018.5 hPa | 0 mm | - | - | - |
| 1777786643 | 1.11° C | 86% | 1018.5 hPa | 0 mm | - | - | - |
| 1777786342 | 1.11° C | 86% | 1018.5 hPa | 0 mm | - | - | - |
| 1777781784 | 2.22° C | 82% | 1018.5 hPa | 0 mm | - | - | - |
| 1777780586 | 2.78° C | 81% | 1018.6 hPa | 0 mm | - | - | - |
| 1777776266 | 3.89° C | 74% | 1018.5 hPa | 0 mm | - | - | - |
| 1777773506 | 5.56° C | 67% | 1018.2 hPa | 0 mm | - | - | - |
| 1777772308 | 6.11° C | 63% | 1018 hPa | 0 mm | - | - | - |
* Rain since midnight (hover to see other rain measurements)
** Current wind speed in m/s (hover to see current wind gust speed)